Regional Weather Roundup
Issued by NWS

Home | Current Version | Previous Version | Graphics & Text | Print | Product List | Glossary On
Versions: 1 2 3 4 5 6 7 8 9 10 11 12 13 14 15 16 17 18 19 20 21 22 23 24 25 26 27 28 29 30 31 32 33 34 35 36 37 38 39 40 41 42 43 44 45 46 47 48 49 50
000
ASUS43 KLOT 191458
RWRIL

ILLINOIS REGIONAL WEATHER ROUNDUP
NATIONAL WEATHER SERVICE CHICAGO/ROMEOVILLE IL
1000 AM CDT FRI SEP 19 2014

NOTE: "FAIR" INDICATES FEW OR NO CLOUDS BELOW 12,000 FEET WITH NO
SIGNIFICANT WEATHER AND/OR OBSTRUCTIONS TO VISIBILITY.

* THESE STATIONS ARE NOT UNDER NWS QUALITY CONTROL. THEY ALSO MAY NOT
  REPORT WEATHER SUCH AS PRECIPITATION OR FOG.

ILZ001-002-007-009-015-016-024-191600-
NORTHWEST ILLINOIS

CITY           SKY/WX    TMP DP  RH WIND       PRES   REMARKS
MOLINE         SUNNY     64  53  67 S10       30.11S
$$

ILZ003-004-008-010-011-017-018-191600-
NORTH CENTRAL ILLINOIS

CITY           SKY/WX    TMP DP  RH WIND       PRES   REMARKS
ROCKFORD       NOT AVBL
$$

ILZ005-006-012>014-019>023-191600-
NORTHEAST ILLINOIS

CITY           SKY/WX    TMP DP  RH WIND       PRES   REMARKS
CHICAGO-OHARE  MOSUNNY   63  51  65 S12       30.16S
CHICAGO-MIDWAY MOSUNNY   65  51  60 S9G17     30.17S
AURORA         MOSUNNY   63  52  67 S9        30.16S
WAUKEGAN       MOSUNNY   62  53  72 S7        30.15F
DUPAGE AIRPORT MOSUNNY   64  53  67 S9        30.16S
WHEELING       MOSUNNY   65  52  62 S10       30.17F
NORTHERLY ISL    N/A     64  50  60 S7          N/A
$$

LMZ740>746-191600-
SOUTHERN LAKE MICHIGAN

STATION/POSITION SKY/WX   TEMP    WIND        PRES    VSBY  WAVE
                          AIR SEA DIR/SP/G                  HT/PER
                          (F)     (DEG/KT/KT) (MB)    (MI)  (FT/S)
SOUTHERN BUOY              62 64  160/ 17/ 19 1021.8R         4/ 5
WAUKEGAN HARBOR            61     170/ 11/ 13   N/A
HARRISON CRIB              59     170/ 12/ 14   N/A
BURNHAM HARBOR             63     150/  7/ 12   N/A
CALUMET HARBOR             61     160/  9/ 12 1020.7R
MICHIGAN CITY              59     120/ 12/ 15   N/A
MICHIGAN CITY 6N           60 65  150/ 12/ 14   N/A           1/ 2
ST. JOSEPH                 60 65  140/ 14/ 17   N/A           1/ 2
$$

ILZ025>027-034>036-040-047-049-050-058-095>099-191600-
WEST-CENTRAL ILLINOIS

CITY           SKY/WX    TMP DP  RH WIND       PRES   REMARKS
$$

ILZ028>032-037-038-041>044-048-051>054-059>061-191600-
CENTRAL ILLINOIS

CITY           SKY/WX    TMP DP  RH WIND       PRES   REMARKS
PEORIA         NOT AVBL
SPRINGFIELD    SUNNY     65  53  65 SE7       30.14R
TAYLORVILLE    NOT AVBL
$$

ILZ033-039-045-046-055>057-062-063-191600-
EAST-CENTRAL ILLINOIS

CITY           SKY/WX    TMP DP  RH WIND       PRES   REMARKS
CHAMPAIGN      SUNNY     66  51  58 SE12      30.16S
MATTOON        SUNNY     65  51  60 SE9       30.15S
$$

ILZ079-100>102-191600-
SOUTHWEST ILLINOIS

CITY           SKY/WX    TMP DP  RH WIND       PRES   REMARKS
ALTON          MOSUNNY   66  55  68 SE8       30.13R
CAHOKIA*       SUNNY     68  57  68 SE6       30.11S
$$

ILZ064>066-069>071-074>076-080>082-084>086-088>090-092>094-191600-
SOUTH-CENTRAL ILLINOIS

CITY           SKY/WX    TMP DP  RH WIND       PRES   REMARKS
CARBONDALE     SUNNY     65  57  75 E5        30.11R
MARION         SUNNY     68  57  68 SE6       30.11R
$$

ILZ067-068-072-073-078-083-087-091-191600-
SOUTHEAST ILLINOIS

CITY           SKY/WX    TMP DP  RH WIND       PRES   REMARKS
LAWRENCEVILLE  SUNNY     67  52  58 E10       30.15S
$$

ABBREVIATIONS USED IN REMARKS
   TC - TEMPERATURE IN CELSIUS
  WCI - WIND CHILL INDEX
   HX - HEAT INDEX
  VSB - VISIBILITY
$$



USA.gov is the U.S. government's official web portal to all federal, state and local government web resources and services.